|
NORAD ID: 28925 Int'l Code: 2005-052B
Perigee: 6,104.6 km
Apogee: 35,437.0 km
Inclination: 18.2 °
Period: 741.7 minutes
Semi major axis: 27141 km
Launch date: December 29, 2005
Source: Commonwealth of Independent States (former USSR) (CIS)
Note: This is a ROCKET BODY
Two Line Element Set (TLE):
1 28925U 05052B 13140.75416447 -.00000005 00000-0 00000+0 0 553
2 28925 018.1811 180.2338 5403551 231.9340 064.2910 01.94153577 52414
Source:
NASA's NSSDC Master Catalog entry for BREEZE-M R/B
|